Location: Nairn
(57.5833°N, 3.8667°W)
Time: 10:13:40
(UTC+00:00)

N. Korean satellite - Pass Details

Date: 28 October 2020
Orbit: 452 x 504 km, 97.2° (Epoch: 25 November)

Event Time Altitude Azimuth Distance (km) Brightness Sun altitude
Rises 04:54:45 0° 25° (NNE) 2,492 10.6 -19.8°
Reaches altitude 10° 04:57:21 10° 47° (NE) 1,606 9.9 -19.5°
Maximum altitude 04:59:41 17° 90° (E) 1,230 9.6 -19.1°
Drops below altitude 10° 05:02:01 10° 133° (SE) 1,593 9.7 -18.8°
Sets 05:04:34 0° 154° (SSE) 2,460 10.4 -18.5°
